Regional Weather Roundup
Issued by NWS

Home | Current Version | Previous Version | Graphics & Text | Print | Product List | Glossary On
Versions: 1 2 3 4 5 6 7 8 9 10 11 12 13 14 15 16 17 18 19 20 21 22 23 24 25 26 27 28 29 30 31 32 33 34 35 36 37 38 39 40 41 42 43 44 45 46 47 48 49 50
000
ASUS43 KBIS 051002
RWRND

NORTH DAKOTA REGIONAL WEATHER ROUNDUP
NATIONAL WEATHER SERVICE BISMARCK ND
500 AM CDT SAT SEP 05 2015

NOTE: "FAIR" INDICATES FEW OR NO CLOUDS BELOW 12,000 FEET WITH NO
SIGNIFICANT WEATHER AND/OR OBSTRUCTIONS TO VISIBILITY.


NDZ001>003-009>011-017-051100-
NORTHWEST NORTH DAKOTA

CITY           SKY/WX    TMP DP  RH WIND       PRES   REMARKS
WILLISTON      CLOUDY    58  57  97 N16       29.88F
MINOT          CLOUDY    61  58  90 CALM      29.93R
$$

NDZ018>021-031>035-040>046-051100-
SOUTHWEST NORTH DAKOTA

CITY           SKY/WX    TMP DP  RH WIND       PRES   REMARKS
BISMARCK       FOG       69  68  96 NW7       29.85R VSB 1/2
DICKINSON        N/A     62  60  93 NE13      29.84F
GARRISON         N/A     63  61  93 N12       29.91R
HETTINGER ARPT MOCLDY    64  59  83 NE18G24   29.84F
$$

NDZ004>008-012>016-024-026-027-054-051100-
NORTHEAST NORTH DAKOTA

CITY           SKY/WX    TMP DP  RH WIND       PRES   REMARKS
GRAND FORKS    CLOUDY    64  64 100 N10       29.87F FOG
GRND FRKS AFB  FOG       63  63  99 N10       29.88F VSB 1/2
DEVILS LAKE    CLOUDY    63  55  77 NE8       29.90S
$$

NDZ022-023-025-028>030-036>039-047>053-051100-
SOUTHEAST NORTH DAKOTA

CITY           SKY/WX    TMP DP  RH WIND       PRES   REMARKS
FARGO          PTCLDY    69  67  93 N6        29.84S
JAMESTOWN      FOG       68  67  96 NE6       29.85S VSB 1/4
$$



USA.gov is the U.S. government's official web portal to all federal, state and local government web resources and services.